星链-35270(STARLINK-35270)

导读

STARLINK-35270是美国星链星座的卫星,星链是SpaceX打造的低轨卫星互联网星座计划,旨在为全球提供高速互联网服务。该卫星于2025年10月7日发射入轨,延续星链星座扩容节奏,进一步补充星座规模,助力实现全球覆盖、网络无缝连接的服务目标。

Basic Information
目录编号:
65882
目录名称:
STARLINK-35270
国际标识:
2025-224A
轨道中心:
EARTH
卫星名称:
星链-35270
卫星全名:
星链-35270(STARLINK-35270)
卫星状态:
在轨 (已飞行332 天)
发射日期:
2025-10-07 UTC
国别 :
美国 (US)
星等 :
--
Orbit Information
数据来源 国际轨道数据
星历时间: 2026-09-03T21:40:51+0800
18小时前
查看轨道信息
半长轴: 6840.707km
偏心率: 0.0001335
轨道倾角: 53.159°
近地点辐角 68.086°
升交点赤经 261.215°
平近点角 292.028°
近地点: 461.656km
远地点: 463.484km
周期: 93.845分钟
每日圈数: 15.344451
Detailed Information
固有亮度:
5
最大亮度:
2.5
卫星平台:
Starlink V1.0
覆盖范围:
全球
运营商:
太空探索技术公司
运营商所在国:
美国
制造商(研发单位):
太空探索技术公司
制造商所在国:
美国
使用方式:
暂无
Satellite Introduction
Starlink 计划是 SpaceX 推出的全球卫星互联网项目,通过发射低轨道卫星,为全球尤其是偏远地区提供高速、低延迟的互联网服务。自 2019 年起,Starlink 已部署数千颗卫星,旨在缩小全球数字鸿沟,推动互联网普及。该项目还为军事、航空等行业提供通信支持,带来广泛经济效益。
2D Orbit Map
3D Orbit Map
Orbit Altitude Analysis Chart
Orbit Inclination Analysis Chart
Orbit Comprehensive Analysis Chart
View Comprehensive Chart
Conjunction Data List
Event ID Objects TCA Miss Dist (km) Collision Risk Probability Collision Risk Index (CRI) Action
CDM_260903-165804-944506-588221
2026-09-03T
16:58:16+0000
2.822 km
极远距离
1.227318E-6 低风险 0.37
CDM_260904-224004-177206-588221
2026-09-04T
22:40:38+0000
2.399 km
极远距离
1.188498E-6 低风险 0.36